Regional Weather Roundup
Issued by NWS Charleston, SC

Home | Current Version | Previous Version | Text Only | Print | Product List | Glossary On
Versions: 1 2 3 4 5 6 7 8 9 10 11 12 13 14 15 16 17 18 19 20 21 22 23 24 25 26 27 28 29 30 31 32 33 34 35 36 37 38 39 40 41 42 43 44 45 46 47 48 49 50
000
ASUS42 KCHS 082127
RWRCHS

REGIONAL WEATHER ROUNDUP
NATIONAL WEATHER SERVICE CHARLESTON SC
400 PM EST MON FEB 08 2016

NOTE: "FAIR" INDICATES FEW OR NO CLOUDS BELOW 12,000 FEET WITH NO
SIGNIFICANT WEATHER AND/OR OBSTRUCTIONS TO VISIBILITY.

NOT ALL STATIONS ARE QUALITY CONTROLLED BY THE NATIONAL
WEATHER SERVICE. USE DATA WITH CAUTION...ESPECIALLY
DEWPOINT OBSERVATIONS.

NOTICE: OBSERVATIONS FOR THE SAVANNAH-HILTON HEAD INTERNATIONAL AIRPORT
/KSAV/ HAVE BEEN TEMPORARILY REMOVED DUE TO AN ERRONEOUS TEMPERATURE
SENSOR. THE OBSERVATION WILL BE REINTRODUCED ONCE REPAIRS ARE COMPLETE.

SCZ027-030-031-034>040-042>050-082200-
...SOUTHEAST SOUTH CAROLINA...

CITY           SKY/WX    TMP DP  RH WIND       PRES   REMARKS
N CHARLESTON   MOSUNNY   59  35  40 S17G25    29.72F
WATERFRONT PRK   N/A     55  40  56 SW15      29.58F
MOUNT PLEASANT FAIR      57  37  47 S13G23    29.72F
JOHNS ISLAND   FAIR      57  41  54 S17G28    29.73S
PINOPOLIS        N/A     61  34  36 SW10      29.61F
MONCKS CORNER  CLOUDY    55  30  38 SW10      29.69F
SUMMERVILLE    CLOUDY    59  32  36 SW8       29.71S
BEAUFORT MCAS  MOSUNNY   62  31  31 SW13G23   29.72F
BEAUFORT ARPT  FAIR      57  39  51 S9G23     29.72F
HILTON HEAD IS SUNNY     57  43  58 S9G23     29.74F
WALTERBORO     CLOUDY    61  32  33 SW8       29.70F
ALLENDALE      MOCLDY    57  34  41 CALM      29.71R

...SOUTHERN MIDLANDS AND PEE DEE...

CITY           SKY/WX    TMP DP  RH WIND       PRES   REMARKS
GEORGETOWN     NOT AVBL
KINGSTREE      NOT AVBL
ORANGEBURG     LGT RAIN  57  31  37 W17G30    29.69S
BARNWELL       DRIZZLE   48  43  81 CALM      29.75R
AIKEN          FAIR      45  41  87 SW6       29.75F
MANNING        FAIR      59  30  33 SW13G24   29.67F
COLUMBIA       RAIN      46  39  76 W14       29.73R
SUMTER         LGT RAIN  52  39  62 W21G32    29.68R
FLORENCE       PTSUNNY   58  32  37 SW12G17   29.64F
MYRTLE BEACH   SUNNY     55  37  50 S17G25    29.72F
N MYRTLE BEACH SUNNY     54  39  57 SW16G26   29.70F

$$

GAZ063-065-086>088-099>101-113>116-118-119-134>141-150-082200-
...SOUTHEAST GEORGIA...

CITY           SKY/WX    TMP DP  RH WIND       PRES   REMARKS
SAVANNAH ARPT  MOSUNNY   63  29  27 SW16G28   29.73F
HUNTER AAF     MOSUNNY   63  32  31 SW16G23   29.71
FORT STEWART   PTSUNNY   61  31  32 SW14G31   29.72F
STATESBORO     PTSUNNY   61  26  25 W21G30    29.72R
SYLVANIA       RAIN      59  38  45 W18G26    29.72R
CLAXTON        CLOUDY    61  37  41 SW8G17    29.72F

...CSRA...CENTRAL AND FAR SOUTHEAST GEORGIA...

CITY           SKY/WX    TMP DP  RH WIND       PRES   REMARKS
THOMSON        PTSUNNY   54  35  47 SW14G26   29.77S
AUGUSTA-BUSH   CLOUDY    52  40  63 W5        29.73S
AUGUSTA-DANIEL PTSUNNY   52  34  50 W9        29.73F
SWAINSBORO     CLOUDY    54  37  54 NW13G24   29.74R
VIDALIA        RAIN      52  43  71 W12G30    29.75R
EASTMAN        CLOUDY    55  37  51 W8G18     29.78S
HAZLEHURST     CLOUDY    61  34  36 SW13G21   29.72F
ALMA           CLOUDY    60  31  33 SW9G20    29.74F
WAYCROSS       CLOUDY    64  37  36 SW15      29.73F
JESUP          FAIR      66  36  32 W16G23    29.76R
BAXLEY         CLOUDY    61  32  33 W10G22    29.73F
BRUNSWICK      MOSUNNY   63  34  34 SW17G26   29.76F
SAINT SIMONS   SUNNY     62  33  33 SW18G26   29.76F

$$

SCZ027-028-034-036>038-045-046-048>050-GAZ119-141-082200-
...LAKE AND SUPPLEMENTAL COASTAL OBSERVATIONS...

STATION/POSITION TIME  TEMP    WIND        PRES    WAVE   SWELL
                       AIR SEA DIR/SP/G            HT/PER HT/PER/DIR
                 (UTC) (F)     (DEG/KT/KT) (MB)    (FT/S) (FT/S/D)
WINYAH BAY       NOT AVBL
LAKE MURRAY      2000   47     280/ 20/ 26 1005.8R
ACE BASIN NERRS  NOT AVBL
FORT PULASKI     2100   59 53  200/  6/ 11 1007.0F
SAPELO ISLAND    2000   61     220/ 20     1008.0F

$$

ANZ835-935-AMZ111-154-330-350-352-354-370-450-454-472-082200-
...C-MAN AND BUOY OBSERVATIONS...

STATION/POSITION TIME  TEMP    WIND        PRES    WAVE   SWELL
                       AIR SEA DIR/SP/G            HT/PER HT/PER/DIR
                 (UTC) (F)     (DEG/KT/KT) (MB)    (FT/S) (FT/S/D)
BUOY 41004       2050   58 65  220/ 23/ 27 1006.7F   7/ 6   3/12
BUOY 41008       2050   56 55  190/ 16/ 17 1007.9F   4/15   2/ 90/15
FOLLY BEACH CMAN 2100   54     210/ 19/ 22 1006.9F
CAPERS NEARSHORE 2008   54     220/ 19/ 25 1006.1F
FRIPP NEARSHORE  2000   55     200/ 17/ 21 1007.5F


STATION/POSITION TIME  TEMP    WIND        PRES    WAVE   SWELL
                       AIR SEA DIR/SP/G            HT/PER HT/PER/DIR
                 (UTC) (F)     (DEG/KT/KT) (MB)    (FT/S) (FT/S/D)
5E ST. MARYS GA  2021      55                N/A     4/15   2/110/15
FRYING PAN BUOY  2100   58 60  230/ 21/ 27 1006.6F
BUOY 41025       2050   48 74  310/  8/ 10 1008.1S  13/15  13/ 70/15
CAPE LOOKOUT NC  NOT AVBL
BUOY 41002       2050   61 69  270/ 17/ 25   N/A    15/15  13/340/15
BUOY 41010       2020   62 72              1013.3F
ST AUGUSTINE FL  2100   62 58  240/ 16/ 22 1010.6F


$$



USA.gov is the U.S. government's official web portal to all federal, state and local government web resources and services.